Simultaneous Nadir Overpasses (SNOs) Predictions

Prediction of SNOs between GOES-15 and NPP Satellite Orbit:

Table of predicted SNOs for the next 14.0 days since TLE Epoch: 4/4/2014
Index Date Time (GOES-15) GOES-15 Lat,Lon NPP Lat,Lon Distance(km) Time Diff (sec)
1 04/04/2014 22:47:32 -0.01,-135.32 -0.84,-139.09 428.30 80
2 04/05/2014 22:26:10 -0.00,-135.34 0.17,-134.56 89.74 80
3 04/08/2014 10:29:19 0.01,-135.40 0.01,-135.30 10.79 80
4 04/10/2014 22:35:17 -0.01,-135.43 -0.14,-136.09 74.94 80
5 04/11/2014 22:13:54 -0.00,-135.44 0.87,-131.56 442.50 80
6 04/13/2014 10:38:25 0.01,-135.47 0.30,-136.84 155.47 80
7 04/14/2014 10:17:03 0.00,-135.48 -0.71,-132.31 361.49 80
8 04/15/2014 22:41:42 -0.01,-135.48 -0.48,-137.61 242.91 80
9 04/16/2014 22:20:20
